Погода в Помошной

Украина / Кировоградская область     48°14′35″N   31°24′21″E
темп.,
°C
ветер,
м/с
пор.,
м/с
влажн.,
%
обл.,
%
осадки,
мм/ч
давл.,
гПа
погр.,
м
15 мая, сб
сб1500:00+12ю49935 0.0 1009153
03:00+11ююз36945 0.0 1010111
06:00+10ююз35905 0.0 1010113
09:00+16юз45700 0.0 1011493
12:00+20юз46530 0.0 10121609
15:00+21юз5745100 0.0 10112306
18:00+18зсз3666100 0.0 1012205
21:00+16вюв116779 0.0 101211
16 мая, вс
вс1600:00+14ююв117577 0.0 101315
03:00+12ю118511 0.0 101311
06:00+12вюв228334 0.0 101313
09:00+18в2263100 0.0 1013401
12:00+22всв4451100 0.0 10121424
15:00+23вюв4441100 0.0 10101883
18:00+23в2447100 0.0 10091902
21:00+17св4464100 0.0 100849
17 мая, пн
пн1700:00+17св41171100 0.0 1007214
03:00+15св61195100 3.6 1006281
06:00+14ссз489796 1.9 1005249
09:00+18ссв698224 2.0 1004491
12:00+22ссв6665100 0.1 10031109
15:00+21ссв4570100 3.1 1002844
18:00+19ссз4683100 4.9 1001203
21:00+15ссз51096100 8.8 1002449
18 мая, вт
вт1800:00+15зсз71198100 5.6 1002560
03:00+12юз499724 8.8 1004275
06:00+12ю23977 0.0 100484
09:00+17ю698223 0.9 1004516
12:00+21ююз8959100 0.1 10031330
15:00+19зюз9107155 2.8 10041210
18:00+17зсз5773100 0.6 10051058
21:00+13зсз37888 0.8 1007200
19 мая, ср
ср1900:00+12зсз498771 0.1 1008379
03:00+11з4109187 0.1 1008302
06:00+10з499348 0.0 1010267
09:00+14зсз5773100 0.0 1011698
12:00+17зсз6758100 0.3 10121484
15:00+17зсз565468 0.3 10121718
18:00+17сз455769 0.1 10121433
21:00+13ссз3374100 0.1 101336